Weather History for Wooster, OH

Change the Weather History Date:

Tuesday, November 20, 2012

  Actual Average Record
Temperature  
Mean Temperature 42 °F -  
Max Temperature 55 °F 46 °F 62 °F (2007)
Min Temperature 30 °F 30 °F 19 °F (2014)
Degree Days  
Heating Degree Days 22    
Moisture  
Dew Point 33 °F    
Average Humidity 79    
Maximum Humidity 96    
Minimum Humidity 44    
Precipitation  
Precipitation 0.00 in - - ()
Sea Level Pressure  
Sea Level Pressure 30.17 in    
Wind  
Wind Speed 1 mph (SSE)    
Max Wind Speed 5 mph    
Max Gust Speed -    
Visibility 7 miles    
Events      
Averages and records for this station are not official NWS values.
T = Trace of Precipitation, MM = Missing Value Source: NWS Daily Summary

Daily Weather History Graph

Daily Weather History Graph

Search for Another Location

Airport:

Trip Planner

Search our weather history database for the weather conditions in past years. The results will help you decide how hot, cold, wet, or windy it might be!

Date:

Astronomy

Nov. 20, 2012 Rise Set
Actual Time 7:21 AM EST 5:05 PM EST
Civil Twilight 6:51 AM EST 5:34 PM EST
Nautical Twilight 6:17 AM EST 6:08 PM EST
Astronomical Twilight 5:45 AM EST 6:41 PM EST
Moon 12:53 PM EST (11/20) No Moon Set
Length of Visible Light 10h 43m
Length of Day
9h 43m
Waxing Crescent, 51% of the Moon is Illuminated
Nov 20
Waxing Crescent
Nov 28
Full
Dec 6
Last Quarter
Dec 13
New
Dec 20
First Quarter

Hourly Weather History & Observations

Time (EST) Temp. Windchill Dew Point Humidity Pressure Visibility Wind Dir Wind Speed Gust Speed Precip Events Conditions
12:56 AM 33.1 °F - 30.9 °F 92% 30.21 in 6.0 mi Calm Calm - N/A   Clear
1:56 AM 33.1 °F - 30.9 °F 92% 30.20 in 5.0 mi Calm Calm - 0.00 in   Clear
2:56 AM 33.1 °F - 30.9 °F 92% 30.19 in 5.0 mi Calm Calm - N/A   Clear
3:56 AM 30.0 °F - 28.9 °F 96% 30.19 in 4.0 mi Calm Calm - N/A   Clear
4:56 AM 30.9 °F - 30.0 °F 96% 30.18 in 4.0 mi Calm Calm - N/A   Clear
5:56 AM 33.1 °F - 30.9 °F 92% 30.19 in 4.0 mi Calm Calm - N/A   Mostly Cloudy
6:56 AM 34.0 °F - 32.0 °F 92% 30.19 in 5.0 mi Calm Calm - N/A   Overcast
7:56 AM 35.1 °F - 33.1 °F 92% 30.19 in 3.0 mi Calm Calm - N/A   Overcast
8:56 AM 37.9 °F - 34.0 °F 86% 30.20 in 3.0 mi Calm Calm - N/A   Mostly Cloudy
9:56 AM 42.1 °F - 37.0 °F 82% 30.19 in 4.0 mi Calm Calm - N/A   Haze
10:56 AM 46.0 °F 44.8 °F 35.1 °F 66% 30.18 in 7.0 mi South 3.5 mph - N/A   Mostly Cloudy
11:56 AM 53.1 °F - 35.1 °F 50% 30.16 in 10.0 mi Variable 3.5 mph - N/A   Overcast
12:56 PM 54.0 °F - 34.0 °F 47% 30.13 in 10.0 mi SSE 4.6 mph - N/A   Mostly Cloudy
1:56 PM 55.9 °F - 34.0 °F 44% 30.12 in 10.0 mi ESE 4.6 mph - N/A   Mostly Cloudy
3:56 PM 55.0 °F - 34.0 °F 45% 30.12 in 10.0 mi South 3.5 mph - N/A   Mostly Cloudy
4:56 PM 46.9 °F - 35.1 °F 63% 30.12 in 10.0 mi Calm Calm - N/A   Clear
5:56 PM 41.0 °F - 34.0 °F 76% 30.14 in 10.0 mi Calm Calm - N/A   Scattered Clouds
6:56 PM 44.1 °F - 36.0 °F 73% 30.15 in 10.0 mi Calm Calm - N/A   Overcast
7:56 PM 43.0 °F - 37.0 °F 80% 30.17 in 10.0 mi Calm Calm - 0.00 in   Overcast
8:56 PM 41.0 °F - 36.0 °F 82% 30.17 in 10.0 mi Calm Calm - N/A   Overcast
9:56 PM 36.0 °F - 33.1 °F 89% 30.17 in 10.0 mi Calm Calm - N/A   Scattered Clouds
10:56 PM 34.0 °F - 32.0 °F 92% 30.17 in 9.0 mi Calm Calm - N/A   Mostly Cloudy
11:56 PM 34.0 °F - 30.9 °F 89% 30.16 in 7.0 mi Calm Calm - N/A   Mostly Cloudy